Find Starlink 5199

NORAD ID: 54201 Int'l Des: 2022-141 Owner: SPXS Country: US Constellation: starlink operational
LEOCIRCULAR

現在のビュー

3D地球を読み込み中...

Starlink 5199について

説明を読み込み中...

次回通過

Passes for default location (London). Set your location on the main map for personalized predictions.

高度履歴

Loading altitude history...

軌道要素

1 54201U 22141AW 26149.54091521 -.00000762 00000-0 -29800-4 0 9991
2 54201 53.1989 351.1530 0001151 92.9592 267.1531 15.08838436198202
Epoch: May 29, 2026 • Age: 14 hours

現在のステータス

高度 545.8 km
速度 7.59 km/s
衛星直下点 -20.61°S, 101.9°W
打ち上げ日 Oct 28, 2022
運用期間 3.5 years
タイプ internet

技術仕様

分類 Payload
質量 305.00 kg
乾燥質量 290.00 kg
総質量 305.00 kg
長さ 0.20 m
直径 2.80 m
スパン 9.00 m
形状 Box + pan
製造者 SPXS
バスタイプ Starlink
フェーズステータス In Orbit
所有者/国 SPXS/US

Most Searched